| time (UTC) | temp F | wind direction | speed MPH | gust MPH | rain 1hr in | rain 24hr in | rain mn in | humidity % | barometer mb |
| 20260901171915 | 65 | 68 | 2.0 | 11.0 | 0.00 | 0.00 | 0.00 | 10 | 1009.7 |
| 20260901171404 | 66 | 23 | 2.0 | 9.0 | 0.00 | 0.00 | 0.00 | 10 | 1009.8 |
| 20260901170855 | 66 | 90 | 4.0 | 13.0 | 0.00 | 0.00 | 0.00 | 10 | 1009.7 |
| 20260901170345 | 65 | 68 | 7.0 | 13.0 | 0.00 | 0.00 | 0.00 | 10 | 1010.0 |
| 20260901165834 | 65 | 23 | 4.0 | 9.0 | 0.00 | 0.00 | 0.00 | 10 | 1010.1 |
| 20260901165324 | 65 | 68 | 1.0 | 8.0 | 0.00 | 0.00 | 0.00 | 10 | 1010.1 |
| 20260901164814 | 65 | 68 | 4.0 | 9.0 | 0.00 | 0.00 | 0.00 | 10 | 1010.3 |
| 20260901164303 | 65 | 68 | 5.0 | 9.0 | 0.00 | 0.00 | 0.00 | 10 | 1010.4 |
| 20260901163754 | 64 | 23 | 4.0 | 9.0 | 0.00 | 0.00 | 0.00 | 10 | 1010.6 |
| 20260901163243 | 64 | 90 | 2.0 | 9.0 | 0.00 | 0.00 | 0.00 | 10 | 1010.4 |
| 20260901162734 | 64 | 68 | 8.0 | 11.0 | 0.00 | 0.00 | 0.00 | 10 | 1010.4 |
| 20260901162223 | 64 | 45 | 2.0 | 11.0 | 0.00 | 0.00 | 0.00 | 10 | 1010.6 |
| 20260901161713 | 64 | 45 | 5.0 | 9.0 | 0.00 | 0.00 | 0.00 | 10 | 1010.6 |
| 20260901161203 | 64 | 23 | 4.0 | 9.0 | 0.00 | 0.00 | 0.00 | 10 | 1010.8 |
| 20260901160143 | 64 | 68 | 3.0 | 9.0 | 0.00 | 0.00 | 0.00 | 10 | 1010.7 |
| 20260901155633 | 62 | 90 | 4.0 | 11.0 | 0.00 | 0.00 | 0.00 | 10 | 1010.8 |
| 20260901155122 | 62 | 45 | 6.0 | 11.0 | 0.00 | 0.00 | 0.00 | 10 | 1010.9 |
| 20260901154612 | 62 | 90 | 5.0 | 11.0 | 0.00 | 0.00 | 0.00 | 10 | 1010.9 |
| 20260901154103 | 62 | 90 | 6.0 | 9.0 | 0.00 | 0.00 | 0.00 | 10 | 1010.8 |
| 20260901153048 | 62 | 68 | 4.0 | 7.0 | 0.00 | 0.00 | 0.00 | 10 | 1011.4 |
| 20260901152532 | 62 | 23 | 2.0 | 7.0 | 0.00 | 0.00 | 0.00 | 10 | 1011.5 |
| 20260901152022 | 62 | 90 | 3.0 | 7.0 | 0.00 | 0.00 | 0.00 | 10 | 1011.6 |
| 20260901151514 | 62 | 68 | 2.0 | 6.0 | 0.00 | 0.00 | 0.00 | 10 | 1011.7 |
| 20260901150451 | 61 | 23 | 2.0 | 9.0 | 0.00 | 0.00 | 0.00 | 10 | 1011.6 |
| 20260901145941 | 61 | 90 | 3.0 | 9.0 | 0.00 | 0.00 | 0.00 | 10 | 1011.4 |
| 20260901144922 | 60 | 338 | 2.0 | 11.0 | 0.00 | 0.00 | 0.00 | 10 | 1011.7 |
| 20260901144411 | 60 | 45 | 4.0 | 11.0 | 0.00 | 0.00 | 0.00 | 10 | 1011.7 |
| 20260901143902 | 60 | 90 | 2.0 | 11.0 | 0.00 | 0.00 | 0.00 | 10 | 1011.8 |
| 20260901143350 | 59 | 315 | 2.0 | 11.0 | 0.00 | 0.00 | 0.00 | 10 | 1011.9 |
| 20260901142841 | 60 | 135 | 5.0 | 11.0 | 0.00 | 0.00 | 0.00 | 10 | 1012.2 |
| 20260901142331 | 59 | 113 | 2.0 | 11.0 | 0.00 | 0.00 | 0.00 | 10 | 1012.1 |
| 20260901141311 | 58 | 90 | 8.0 | 13.0 | 0.00 | 0.00 | 0.00 | 10 | 1011.7 |
| 20260901140250 | 57 | 315 | 7.0 | 14.0 | 0.00 | 0.00 | 0.00 | 10 | 1011.7 |
| 20260901135740 | 57 | 135 | 6.0 | 14.0 | 0.00 | 0.00 | 0.00 | 10 | 1011.8 |
| 20260901135230 | 58 | 135 | 12.0 | 14.0 | 0.00 | 0.00 | 0.00 | 10 | 1011.9 |
| 20260901134720 | 57 | 45 | 8.0 | 13.0 | 0.00 | 0.00 | 0.00 | 10 | 1011.7 |
| 20260901134209 | 58 | 338 | 2.0 | 15.0 | 0.00 | 0.00 | 0.00 | 10 | 1011.7 |
| 20260901133701 | 56 | 180 | 4.0 | 15.0 | 0.00 | 0.00 | 0.00 | 10 | 1011.8 |
| 20260901133149 | 57 | 158 | 8.0 | 14.0 | 0.00 | 0.00 | 0.00 | 10 | 1011.8 |
| 20260901132640 | 56 | 293 | 4.0 | 14.0 | 0.00 | 0.00 | 0.00 | 10 | 1011.7 |
| 20260901132130 | 57 | 338 | 2.0 | 16.0 | 0.00 | 0.00 | 0.00 | 10 | 1011.8 |
| 20260901131619 | 56 | 68 | 2.0 | 16.0 | 0.00 | 0.00 | 0.00 | 10 | 1011.8 |
| 20260901131109 | 57 | 45 | 3.0 | 14.0 | 0.00 | 0.00 | 0.00 | 10 | 1011.7 |
| 20260901130559 | 57 | 113 | 2.0 | 16.0 | 0.00 | 0.00 | 0.00 | 10 | 1011.7 |
| 20260901125030 | 56 | 45 | 4.0 | 14.0 | 0.00 | 0.00 | 0.00 | 10 | 1011.5 |
| 20260901124518 | 56 | 158 | 8.0 | 13.0 | 0.00 | 0.00 | 0.00 | 10 | 1011.5 |
| 20260901124009 | 56 | 180 | 4.0 | 11.0 | 0.00 | 0.00 | 0.00 | 10 | 1011.4 |
| 20260901123459 | 55 | 338 | 5.0 | 9.0 | 0.00 | 0.00 | 0.00 | 10 | 1011.5 |
| 20260901122439 | 54 | 90 | 2.0 | 7.0 | 0.00 | 0.00 | 0.00 | 10 | 1011.4 |
| 20260901121418 | 53 | 0 | 2.0 | 11.0 | 0.00 | 0.00 | 0.00 | 10 | 1011.5 |
| 20260901120908 | 53 | 158 | 3.0 | 9.0 | 0.00 | 0.00 | 0.00 | 10 | 1011.4 |
| 20260901120358 | 52 | 293 | 2.0 | 9.0 | 0.00 | 0.00 | 0.00 | 10 | 1011.4 |
| 20260901115848 | 52 | 135 | 5.0 | 8.0 | 0.00 | 0.00 | 0.00 | 10 | 1011.2 |
| 20260901115338 | 52 | 135 | 5.0 | 7.0 | 0.00 | 0.00 | 0.00 | 10 | 1011.2 |
| 20260901114827 | 51 | 135 | 4.0 | 11.0 | 0.00 | 0.00 | 0.00 | 10 | 1011.0 |
| 20260901114317 | 51 | 135 | 6.0 | 11.0 | 0.00 | 0.00 | 0.00 | 10 | 1011.0 |
| 20260901113257 | 51 | 158 | 8.0 | 14.0 | 0.00 | 0.00 | 0.00 | 10 | 1010.9 |
| 20260901112747 | 51 | 135 | 5.0 | 13.0 | 0.00 | 0.00 | 0.00 | 10 | 1010.9 |
| 20260901112237 | 50 | 113 | 8.0 | 13.0 | 0.00 | 0.00 | 0.00 | 10 | 1010.9 |
| 20260901111726 | 50 | 23 | 8.0 | 13.0 | 0.00 | 0.00 | 0.00 | 10 | 1010.6 |
| 20260901111217 | 50 | 135 | 9.0 | 13.0 | 0.00 | 0.00 | 0.00 | 10 | 1010.8 |
| 20260901110706 | 50 | 135 | 8.0 | 13.0 | 0.00 | 0.00 | 0.00 | 10 | 1010.8 |
| 20260901110156 | 50 | 293 | 5.0 | 11.0 | 0.00 | 0.00 | 0.00 | 10 | 1010.9 |
| 20260901105646 | 49 | 158 | 3.0 | 8.0 | 0.00 | 0.00 | 0.00 | 10 | 1010.5 |
| 20260901104627 | 49 | 90 | 4.0 | 9.0 | 0.00 | 0.00 | 0.00 | 10 | 1010.6 |
| 20260901104115 | 50 | 293 | 4.0 | 9.0 | 0.00 | 0.00 | 0.00 | 10 | 1010.4 |
| 20260901103606 | 50 | 203 | 2.0 | 9.0 | 0.00 | 0.00 | 0.00 | 10 | 1010.4 |
| 20260901102546 | 50 | 248 | 2.0 | 9.0 | 0.00 | 0.00 | 0.00 | 10 | 1010.2 |
| 20260901101016 | 50 | 315 | 2.0 | 9.0 | 0.00 | 0.00 | 0.00 | 10 | 1010.2 |
| 20260901095955 | 49 | 338 | 2.0 | 8.0 | 0.00 | 0.00 | 0.00 | 10 | 1010.2 |
| 20260901095445 | 50 | 338 | 3.0 | 8.0 | 0.00 | 0.00 | 0.00 | 10 | 1010.1 |
| 20260901094935 | 50 | 0 | 4.0 | 8.0 | 0.00 | 0.00 | 0.00 | 10 | 1010.0 |
| 20260901094424 | 50 | 293 | 3.0 | 9.0 | 0.00 | 0.00 | 0.00 | 10 | 1009.9 |
| 20260901093405 | 50 | 180 | 4.0 | 7.0 | 0.00 | 0.00 | 0.00 | 10 | 1009.6 |
| 20260901092854 | 50 | 270 | 3.0 | 8.0 | 0.00 | 0.00 | 0.00 | 10 | 1009.6 |
| 20260901092344 | 50 | 135 | 2.0 | 8.0 | 0.00 | 0.00 | 0.00 | 10 | 1009.6 |
| 20260901091834 | 51 | 203 | 4.0 | 8.0 | 0.00 | 0.00 | 0.00 | 10 | 1009.5 |
| 20260901091323 | 51 | 158 | 3.0 | 8.0 | 0.00 | 0.00 | 0.00 | 10 | 1009.2 |
| 20260901090814 | 50 | 113 | 2.0 | 6.0 | 0.00 | 0.00 | 0.00 | 10 | 1009.3 |
| 20260901090303 | 50 | 45 | 2.0 | 6.0 | 0.00 | 0.00 | 0.00 | 10 | 1009.2 |
| 20260901085243 | 50 | 0 | 2.0 | 9.0 | 0.00 | 0.00 | 0.00 | 10 | 1009.1 |
| 20260901084734 | 51 | 0 | 2.0 | 9.0 | 0.00 | 0.00 | 0.00 | 10 | 1009.1 |
| 20260901084223 | 50 | 180 | 3.0 | 7.0 | 0.00 | 0.00 | 0.00 | 10 | 1009.3 |
| 20260901083713 | 50 | 113 | 2.0 | 7.0 | 0.00 | 0.00 | 0.00 | 10 | 1009.0 |
| 20260901083202 | 50 | 315 | 3.0 | 7.0 | 0.00 | 0.00 | 0.00 | 10 | 1009.4 |
| 20260901082143 | 50 | 45 | 2.0 | 6.0 | 0.00 | 0.00 | 0.00 | 10 | 1009.1 |
| 20260901081632 | 51 | 113 | 2.0 | 6.0 | 0.00 | 0.00 | 0.00 | 10 | 1009.1 |
| 20260901081122 | 51 | 225 | 2.0 | 8.0 | 0.00 | 0.00 | 0.00 | 10 | 1009.2 |
| 20260901080612 | 51 | 315 | 2.0 | 8.0 | 0.00 | 0.00 | 0.00 | 10 | 1009.1 |
| 20260901075552 | 51 | 23 | 2.0 | 7.0 | 0.00 | 0.00 | 0.00 | 10 | 1009.1 |
| 20260901075042 | 51 | 23 | 2.0 | 4.0 | 0.00 | 0.00 | 0.00 | 10 | 1009.0 |
| 20260901074532 | 51 | 23 | 2.0 | 7.0 | 0.00 | 0.00 | 0.00 | 10 | 1009.0 |
| 20260901074022 | 51 | 270 | 2.0 | 7.0 | 0.00 | 0.00 | 0.00 | 10 | 1009.2 |
| 20260901073512 | 52 | 135 | 3.0 | 8.0 | 0.00 | 0.00 | 0.00 | 10 | 1009.0 |
| 20260901072452 | 53 | 180 | 2.0 | 7.0 | 0.00 | 0.00 | 0.00 | 10 | 1008.9 |
| 20260901071941 | 52 | 180 | 2.0 | 6.0 | 0.00 | 0.00 | 0.00 | 10 | 1009.1 |
| 20260901070921 | 53 | 0 | 2.0 | 6.0 | 0.00 | 0.00 | 0.00 | 10 | 1009.0 |
| 20260901070409 | 53 | 23 | 2.0 | 0.0 | 0.00 | 0.00 | 0.00 | 10 | 1009.2 |
| 20260901070218 | 53 | 338 | 2.0 | 0.0 | 0.00 | 0.00 | 0.00 | 10 | 1009.1 |
| 20260901065012 | 53 | 225 | 3.0 | 7.0 | 0.00 | 0.00 | 0.00 | 10 | 1009.2 |
| 20260901063951 | 54 | 203 | 4.0 | 6.0 | 0.00 | 0.00 | 0.00 | 10 | 1009.4 |
| 20260901063440 | 54 | 225 | 2.0 | 6.0 | 0.00 | 0.00 | 0.00 | 10 | 1009.3 |
| 20260901062930 | 54 | 270 | 0.0 | 4.0 | 0.00 | 0.00 | 0.00 | 10 | 1009.1 |
| 20260901062420 | 55 | 23 | 1.0 | 4.0 | 0.00 | 0.00 | 0.00 | 10 | 1009.0 |
| 20260901061359 | 56 | 158 | 2.0 | 8.0 | 0.00 | 0.00 | 0.00 | 10 | 1009.0 |
| 20260901060340 | 55 | 158 | 1.0 | 6.0 | 0.00 | 0.00 | 0.00 | 10 | 1009.1 |
| 20260901055829 | 55 | 158 | 4.0 | 8.0 | 0.00 | 0.00 | 0.00 | 10 | 1009.3 |
| 20260901055319 | 55 | 180 | 2.0 | 8.0 | 0.00 | 0.00 | 0.00 | 10 | 1009.2 |
| 20260901054810 | 55 | 338 | 2.0 | 7.0 | 0.00 | 0.00 | 0.00 | 10 | 1009.2 |
| 20260901054259 | 55 | 270 | 2.0 | 7.0 | 0.00 | 0.00 | 0.00 | 10 | 1009.2 |
| 20260901053750 | 55 | 0 | 2.0 | 4.0 | 0.00 | 0.00 | 0.00 | 10 | 1009.4 |
| 20260901053239 | 55 | 270 | 2.0 | 7.0 | 0.00 | 0.00 | 0.00 | 10 | 1009.3 |
| 20260901052220 | 55 | 0 | 2.0 | 7.0 | 0.00 | 0.00 | 0.00 | 10 | 1009.1 |
| 20260901051710 | 55 | 293 | 2.0 | 6.0 | 0.00 | 0.00 | 0.00 | 10 | 1009.1 |
| 20260901050649 | 55 | 68 | 2.0 | 8.0 | 0.00 | 0.00 | 0.00 | 10 | 1009.3 |
| 20260901050139 | 55 | 225 | 4.0 | 11.0 | 0.00 | 0.00 | 0.00 | 10 | 1009.4 |
| 20260901045628 | 55 | 225 | 5.0 | 11.0 | 0.00 | 0.00 | 0.00 | 10 | 1009.2 |
| 20260901045119 | 55 | 248 | 7.0 | 13.0 | 0.00 | 0.00 | 0.00 | 10 | 1009.5 |
| 20260901044608 | 55 | 248 | 8.0 | 14.0 | 0.00 | 0.00 | 0.00 | 10 | 1009.4 |
| 20260901044058 | 54 | 248 | 9.0 | 14.0 | 0.00 | 0.00 | 0.00 | 10 | 1009.4 |
| 20260901043548 | 55 | 180 | 9.0 | 13.0 | 0.00 | 0.00 | 0.00 | 10 | 1009.5 |
| 20260901043038 | 56 | 203 | 7.0 | 11.0 | 0.00 | 0.00 | 0.00 | 10 | 1009.7 |
| 20260901042528 | 56 | 248 | 4.0 | 7.0 | 0.00 | 0.00 | 0.00 | 10 | 1009.4 |
| 20260901042018 | 57 | 113 | 3.0 | 8.0 | 0.00 | 0.00 | 0.00 | 10 | 1009.4 |
| 20260901041517 | 56 | 203 | 4.0 | 11.0 | 0.00 | 0.00 | 0.00 | 10 | 1009.2 |
| 20260901040447 | 57 | 203 | 4.0 | 8.0 | 0.00 | 0.00 | 0.00 | 10 | 1009.4 |
| 20260901035937 | 57 | 180 | 3.0 | 7.0 | 0.00 | 0.00 | 0.00 | 10 | 1009.4 |
| 20260901035427 | 57 | 270 | 4.0 | 8.0 | 0.00 | 0.00 | 0.00 | 10 | 1009.5 |
| 20260901034917 | 57 | 203 | 2.0 | 9.0 | 0.00 | 0.00 | 0.00 | 10 | 1009.6 |
| 20260901034407 | 57 | 180 | 4.0 | 9.0 | 0.00 | 0.00 | 0.00 | 10 | 1009.5 |
| 20260901033858 | 57 | 203 | 7.0 | 8.0 | 0.00 | 0.00 | 0.00 | 10 | 1009.7 |
| 20260901032836 | 58 | 225 | 2.0 | 6.0 | 0.00 | 0.00 | 0.00 | 10 | 1009.6 |
| 20260901032326 | 59 | 270 | 2.0 | 6.0 | 0.00 | 0.00 | 0.00 | 10 | 1009.2 |
| 20260901031306 | 61 | 90 | 3.0 | 4.0 | 0.00 | 0.00 | 0.00 | 10 | 1009.3 |
| 20260901030756 | 60 | 90 | 4.0 | 6.0 | 0.00 | 0.00 | 0.00 | 10 | 1009.1 |
| 20260901030247 | 60 | 90 | 4.0 | 8.0 | 0.00 | 0.00 | 0.00 | 10 | 1009.3 |
| 20260901025736 | 60 | 113 | 4.0 | 8.0 | 0.00 | 0.00 | 0.00 | 10 | 1009.5 |
| 20260901025227 | 60 | 113 | 7.0 | 8.0 | 0.00 | 0.00 | 0.00 | 10 | 1009.6 |
| 20260901024716 | 60 | 90 | 3.0 | 8.0 | 0.00 | 0.00 | 0.00 | 10 | 1009.1 |
| 20260901024206 | 60 | 135 | 4.0 | 8.0 | 0.00 | 0.00 | 0.00 | 10 | 1009.3 |
| 20260901023656 | 59 | 135 | 4.0 | 6.0 | 0.00 | 0.00 | 0.00 | 10 | 1009.3 |
| 20260901023145 | 59 | 158 | 1.0 | 7.0 | 0.00 | 0.00 | 0.00 | 10 | 1009.3 |
| 20260901022635 | 58 | 203 | 2.0 | 7.0 | 0.00 | 0.00 | 0.00 | 10 | 1009.3 |
| 20260901022125 | 58 | 135 | 3.0 | 6.0 | 0.00 | 0.00 | 0.00 | 10 | 1009.4 |
| 20260901021106 | 58 | 180 | 2.0 | 4.0 | 0.00 | 0.00 | 0.00 | 10 | 1009.4 |
| 20260901020555 | 58 | 203 | 2.0 | 4.0 | 0.00 | 0.00 | 0.00 | 10 | 1009.2 |
| 20260901015534 | 58 | 225 | 2.0 | 8.0 | 0.00 | 0.00 | 0.00 | 10 | 1009.2 |
| 20260901015024 | 57 | 225 | 5.0 | 8.0 | 0.00 | 0.00 | 0.00 | 10 | 1009.5 |
| 20260901014514 | 57 | 203 | 6.0 | 7.0 | 0.00 | 0.00 | 0.00 | 10 | 1009.2 |
| 20260901014005 | 57 | 203 | 5.0 | 7.0 | 0.00 | 0.00 | 0.00 | 10 | 1009.4 |
| 20260901013455 | 57 | 203 | 4.0 | 6.0 | 0.00 | 0.00 | 0.00 | 10 | 1009.4 |
| 20260901012944 | 57 | 203 | 2.0 | 7.0 | 0.00 | 0.00 | 0.00 | 10 | 1009.2 |
| 20260901012434 | 57 | 225 | 4.0 | 7.0 | 0.00 | 0.00 | 0.00 | 10 | 1009.0 |
| 20260901011924 | 58 | 203 | 4.0 | 7.0 | 0.00 | 0.00 | 0.00 | 10 | 1009.0 |
| 20260901011414 | 60 | 225 | 2.0 | 7.0 | 0.00 | 0.00 | 0.00 | 10 | 1008.8 |
| 20260901010354 | 60 | 68 | 7.0 | 8.0 | 0.00 | 0.00 | 0.00 | 10 | 1008.8 |
| 20260901005843 | 60 | 90 | 7.0 | 8.0 | 0.00 | 0.00 | 0.00 | 10 | 1008.7 |
| 20260901005333 | 60 | 68 | 7.0 | 8.0 | 0.00 | 0.00 | 0.00 | 10 | 1008.5 |
| 20260901004822 | 60 | 90 | 6.0 | 9.0 | 0.00 | 0.00 | 0.00 | 10 | 1008.8 |
| 20260901004314 | 61 | 113 | 8.0 | 9.0 | 0.00 | 0.00 | 0.00 | 10 | 1008.5 |
| 20260901003803 | 61 | 90 | 8.0 | 9.0 | 0.00 | 0.00 | 0.00 | 10 | 1008.5 |
| 20260901003253 | 60 | 135 | 8.0 | 9.0 | 0.00 | 0.00 | 0.00 | 10 | 1008.3 |
| 20260901002743 | 60 | 135 | 8.0 | 9.0 | 0.00 | 0.00 | 0.00 | 10 | 1008.6 |
| 20260901002233 | 60 | 158 | 5.0 | 9.0 | 0.00 | 0.00 | 0.00 | 10 | 1008.5 |
| 20260901001723 | 60 | 135 | 7.0 | 9.0 | 0.00 | 0.00 | 0.00 | 10 | 1008.3 |
| 20260901000155 | 61 | 135 | 8.0 | 11.0 | 0.00 | 0.00 | 0.00 | 10 | 1008.1 |
| 20260831235642 | 61 | 135 | 10.0 | 11.0 | 0.00 | 0.00 | 0.00 | 10 | 1007.9 |
| 20260831235132 | 61 | 135 | 10.0 | 11.0 | 0.00 | 0.00 | 0.00 | 10 | 1007.9 |
| 20260831234622 | 61 | 135 | 10.0 | 11.0 | 0.00 | 0.00 | 0.00 | 10 | 1007.9 |
| 20260831234112 | 61 | 135 | 8.0 | 9.0 | 0.00 | 0.00 | 0.00 | 10 | 1007.8 |
| 20260831233601 | 61 | 158 | 6.0 | 9.0 | 0.00 | 0.00 | 0.00 | 10 | 1007.7 |
| 20260831233052 | 61 | 135 | 7.0 | 8.0 | 0.00 | 0.00 | 0.00 | 10 | 1007.6 |
| 20260831232541 | 61 | 135 | 3.0 | 9.0 | 0.00 | 0.00 | 0.00 | 10 | 1007.5 |
| 20260831232032 | 62 | 113 | 4.0 | 9.0 | 0.00 | 0.00 | 0.00 | 10 | 1007.4 |
| 20260831231522 | 63 | 135 | 9.0 | 11.0 | 0.00 | 0.00 | 0.00 | 10 | 1007.0 |
| 20260831231012 | 63 | 135 | 9.0 | 11.0 | 0.00 | 0.00 | 0.00 | 10 | 1007.0 |
| 20260831230502 | 63 | 135 | 9.0 | 11.0 | 0.00 | 0.00 | 0.00 | 10 | 1007.0 |
| 20260831225951 | 63 | 135 | 8.0 | 11.0 | 0.00 | 0.00 | 0.00 | 10 | 1006.8 |
| 20260831225441 | 63 | 135 | 8.0 | 9.0 | 0.00 | 0.00 | 0.00 | 10 | 1006.9 |
| 20260831224930 | 63 | 135 | 8.0 | 11.0 | 0.00 | 0.00 | 0.00 | 10 | 1006.8 |
| 20260831224421 | 63 | 135 | 8.0 | 11.0 | 0.00 | 0.00 | 0.00 | 10 | 1007.1 |
| 20260831223910 | 62 | 113 | 9.0 | 11.0 | 0.00 | 0.00 | 0.00 | 10 | 1006.7 |
| 20260831222850 | 62 | 90 | 7.0 | 11.0 | 0.00 | 0.00 | 0.00 | 10 | 1006.7 |
| 20260831222340 | 63 | 68 | 7.0 | 9.0 | 0.00 | 0.00 | 0.00 | 10 | 1006.5 |
| 20260831221829 | 63 | 135 | 8.0 | 9.0 | 0.00 | 0.00 | 0.00 | 10 | 1006.5 |
| 20260831220810 | 63 | 113 | 5.0 | 11.0 | 0.00 | 0.00 | 0.00 | 10 | 1006.6 |
| 20260831220300 | 63 | 68 | 7.0 | 11.0 | 0.00 | 0.00 | 0.00 | 10 | 1006.3 |
| 20260831215750 | 63 | 45 | 7.0 | 11.0 | 0.00 | 0.00 | 0.00 | 10 | 1006.2 |
| 20260831214729 | 64 | 135 | 8.0 | 13.0 | 0.00 | 0.00 | 0.00 | 10 | 1006.0 |
| 20260831214219 | 64 | 135 | 8.0 | 13.0 | 0.00 | 0.00 | 0.00 | 10 | 1005.8 |
| 20260831213709 | 64 | 90 | 8.0 | 13.0 | 0.00 | 0.00 | 0.00 | 10 | 1005.6 |
| 20260831213159 | 64 | 135 | 9.0 | 14.0 | 0.00 | 0.00 | 0.00 | 10 | 1005.7 |
| 20260831212649 | 64 | 135 | 8.0 | 15.0 | 0.00 | 0.00 | 0.00 | 10 | 1005.6 |
| 20260831212139 | 64 | 113 | 10.0 | 15.0 | 0.00 | 0.00 | 0.00 | 10 | 1005.5 |
| 20260831211629 | 64 | 135 | 11.0 | 15.0 | 0.00 | 0.00 | 0.00 | 10 | 1005.4 |
| 20260831211118 | 64 | 90 | 9.0 | 14.0 | 0.00 | 0.00 | 0.00 | 10 | 1005.4 |
| 20260831210608 | 64 | 113 | 10.0 | 15.0 | 0.00 | 0.00 | 0.00 | 10 | 1005.5 |
| 20260831210058 | 64 | 135 | 11.0 | 16.0 | 0.00 | 0.00 | 0.00 | 10 | 1005.6 |
| 20260831205548 | 64 | 113 | 8.0 | 16.0 | 0.00 | 0.00 | 0.00 | 10 | 1005.4 |
| 20260831205039 | 65 | 158 | 9.0 | 16.0 | 0.00 | 0.00 | 0.00 | 10 | 1005.4 |
| 20260831204527 | 65 | 45 | 11.0 | 16.0 | 0.00 | 0.00 | 0.00 | 10 | 1005.1 |
| 20260831204018 | 65 | 135 | 11.0 | 16.0 | 0.00 | 0.00 | 0.00 | 10 | 1005.2 |
| 20260831203507 | 65 | 315 | 4.0 | 14.0 | 0.00 | 0.00 | 0.00 | 10 | 1005.2 |
| 20260831202958 | 65 | 338 | 2.0 | 13.0 | 0.00 | 0.00 | 0.00 | 10 | 1005.1 |
| 20260831201938 | 65 | 90 | 6.0 | 11.0 | 0.00 | 0.00 | 0.00 | 10 | 1005.2 |
| 20260831201427 | 65 | 113 | 5.0 | 11.0 | 0.00 | 0.00 | 0.00 | 10 | 1005.1 |
| 20260831200917 | 65 | 113 | 8.0 | 11.0 | 0.00 | 0.00 | 0.00 | 10 | 1005.1 |
| 20260831200408 | 64 | 90 | 4.0 | 11.0 | 0.00 | 0.00 | 0.00 | 10 | 1005.2 |
| 20260831195856 | 64 | 45 | 5.0 | 11.0 | 0.00 | 0.00 | 0.00 | 10 | 1005.1 |
| 20260831194837 | 64 | 68 | 4.0 | 15.0 | 0.00 | 0.00 | 0.00 | 10 | 1005.1 |
| 20260831194326 | 64 | 293 | 4.0 | 15.0 | 0.00 | 0.00 | 0.00 | 10 | 1004.9 |
| 20260831193306 | 64 | 270 | 8.0 | 16.0 | 0.00 | 0.00 | 0.00 | 10 | 1005.0 |
| 20260831192757 | 64 | 113 | 13.0 | 16.0 | 0.00 | 0.00 | 0.00 | 10 | 1004.6 |
| 20260831192245 | 64 | 90 | 11.0 | 14.0 | 0.00 | 0.00 | 0.00 | 10 | 1004.7 |
| 20260831191736 | 65 | 90 | 8.0 | 14.0 | 0.00 | 0.00 | 0.00 | 10 | 1004.5 |
| 20260831191226 | 65 | 68 | 4.0 | 9.0 | 0.00 | 0.00 | 0.00 | 10 | 1004.5 |
| 20260831190716 | 65 | 135 | 3.0 | 8.0 | 0.00 | 0.00 | 0.00 | 10 | 1004.6 |
| 20260831190205 | 65 | 45 | 3.0 | 8.0 | 0.00 | 0.00 | 0.00 | 10 | 1004.2 |
| 20260831185145 | 65 | 23 | 2.0 | 6.0 | 0.00 | 0.00 | 0.00 | 10 | 1004.4 |
| 20260831184125 | 65 | 68 | 3.0 | 7.0 | 0.00 | 0.00 | 0.00 | 10 | 1004.7 |
| 20260831182555 | 65 | 68 | 2.0 | 7.0 | 0.00 | 0.00 | 0.00 | 10 | 1004.3 |
| 20260831182045 | 65 | 68 | 3.0 | 8.0 | 0.00 | 0.00 | 0.00 | 10 | 1004.3 |
| 20260831181534 | 65 | 45 | 4.0 | 8.0 | 0.00 | 0.00 | 0.00 | 10 | 1004.5 |
| 20260831181026 | 65 | 68 | 2.0 | 8.0 | 0.00 | 0.00 | 0.00 | 10 | 1004.9 |
| 20260831180004 | 66 | 23 | 6.0 | 8.0 | 0.00 | 0.00 | 0.00 | 10 | 1004.4 |
| 20260831175454 | 66 | 23 | 4.0 | 9.0 | 0.00 | 0.00 | 0.00 | 10 | 1004.6 |
| 20260831174944 | 67 | 90 | 4.0 | 11.0 | 0.00 | 0.00 | 0.00 | 10 | 1004.5 |
| 20260831173923 | 67 | 90 | 4.0 | 8.0 | 0.00 | 0.00 | 0.00 | 10 | 1004.4 |
| 20260831173414 | 67 | 90 | 4.0 | 7.0 | 0.00 | 0.00 | 0.00 | 10 | 1004.5 |
| 20260831172903 | 67 | 45 | 3.0 | 7.0 | 0.00 | 0.00 | 0.00 | 10 | 1004.3 |
| 20260831172354 | 67 | 45 | 4.0 | 7.0 | 0.00 | 0.00 | 0.00 | 10 | 1004.5 |